This demonstration page uses our WeatherBlox Daily Observations layout. Learn more.

Left ArrowRight Arrow

40.97296, -117.73568

Hourly Observations for March 6, 2016

Temp ( °F °C ) Dew Point ( °F °C ) Humidity (%) Winds ( mph kmh ) Pressure ( in mb ) Visibility ( mi km ) Precip ( " mm )
12:56 am 00:56 Cloudy 52 11.1 36 2.2 55 55 SSW 3 6 29.44 997 10 16 0.00 0.00
1:56 am 01:56 Cloudy with Light Rain 50 10 42 5.6 74 74 S 17 28 29.48 998 8 13 0.01 0.25
2:56 am 02:56 Cloudy 50 10 38 3.3 63 63 S 21 33 29.47 998 10 16 0.00 0.03
3:56 am 03:56 Cloudy with Light Rain 48 8.9 38 3.3 68 68 SSW 18 30 29.49 999 10 16 0.00 0.03
4:56 am 04:56 Cloudy 45 7.2 38 3.3 77 77 SW 15 24 29.52 1000 10 16 0.00 0.03
5:56 am 05:56 Mostly Cloudy 46 7.8 32 0 58 58 SW 17 28 29.54 1000 10 16 0.00 0.03
6:56 am 06:56 Mostly Cloudy with Light Rain 40 4.4 35 1.7 83 83 WSW 17 28 29.62 1003 6 10 0.00 0.03
7:15 am 07:15 Cloudy with Light Rain 40 4.4 34 1.1 79 79 SW 21 33 29.71 1006 10 16 0.01 0.25
7:56 am 07:56 Cloudy 41 5 32 0 70 70 SW 12 19 29.65 1004 10 16 0.01 0.25
8:56 am 08:56 Cloudy with Light Rain 37 2.8 34 1.1 89 89 W 22 35 29.73 1007 7 11 0.00 0.03
9:12 am 09:12 Cloudy with Light Rain 37 3 34 1 87 87 WSW 13 20 29.83 1010 10 16 0.00 0.00
9:56 am 09:56 Mostly Sunny 42 5.6 32 0 68 68 W 21 33 29.72 1007 10 16 0.00 0.03
10:56 am 10:56 Mostly Sunny 45 7.2 30 -1.1 56 56 W 16 26 29.73 1007 10 16 0.00 0.00
11:56 am 11:56 Partly Cloudy 46 7.8 24 -4.4 42 42 W 17 28 29.75 1007 10 16 0.00 0.00
12:56 pm 12:56 Partly Cloudy 47 8.3 25 -3.9 42 42 WSW 16 26 29.73 1007 10 16 0.00 0.00
1:56 pm 13:56 Mostly Cloudy 47 8.3 21 -6.1 36 36 W 15 24 29.73 1007 10 16 0.00 0.00
2:56 pm 14:56 Mostly Cloudy 50 10 23 -5 35 35 W 15 24 29.71 1006 10 16 0.00 0.00
3:56 pm 15:56 Partly Cloudy 48 8.9 20 -6.7 33 33 W 20 31 29.72 1007 10 16 0.00 0.00
4:56 pm 16:56 Mostly Sunny 47 8.3 20 -6.7 34 34 W 13 20 29.72 1006 10 16 0.00 0.00
5:56 pm 17:56 Mostly Cloudy 40 4.4 22 -5.6 49 49 SSE 6 9 29.74 1007 10 16 0.00 0.00
6:56 pm 18:56 Clear 35 1.7 20 -6.7 54 54 Calm 29.75 1008 10 16 0.00 0.00
7:56 pm 19:56 Clear 31 -0.6 20 -6.7 64 64 SSW 6 9 29.76 1008 10 16 0.00 0.00
8:56 pm 20:56 Clear 35 1.7 22 -5.6 59 59 SSE 12 19 29.75 1008 10 16 0.00 0.00
9:56 pm 21:56 Clear 35 1.7 22 -5.6 59 59 SSE 12 19 29.73 1007 10 16 0.00 0.00
10:56 pm 22:56 Mostly Clear 37 2.8 22 -5.6 54 54 S 10 17 29.72 1006 10 16 0.00 0.00
11:56 pm 23:56 Clear 37 2.8 22 -5.6 54 54 SSW 8 13 29.72 1006 10 16 0.00 0.00

Powered by AerisWeather